Location: Härggis
(46.9540°N, 8.4897°E)
Time: 12:54:07
(UTC+00:00)

SL-16 R/B - Pass Details

Date: 02 October 2022
Orbit: 985 x 1007 km, 99.6° (Epoch: 26 November)

Event Time Altitude Azimuth Distance (km) Brightness Sun altitude
Exits shadow 02:01:55 18° 331° (NNW) 2,223 4.4 -33.7°
Drops below altitude 10° 02:03:29 10° 336° (NNW) 2,774 5.0 -33.5°
Sets 02:06:03 0° 341° (NNW) 3,731 5.8 -33.1°
